Regional Weather Roundup
Issued by NWS

Home | Current Version | Previous Version | Graphics & Text | Print | Product List | Glossary On
Versions: 1 2 3 4 5 6 7 8 9 10 11 12 13 14 15 16 17 18 19 20 21 22 23 24 25 26 27 28 29 30 31 32 33 34 35 36 37 38 39 40 41 42 43 44 45 46 47 48 49 50
141
ASUS43 KFSD 010102
RWRSD

WEATHER ROUNDUP FOR SOUTH DAKOTA
NATIONAL WEATHER SERVICE SIOUX FALLS SD
800 PM CDT SUN APR 30 2017

NOTE: "FAIR" INDICATES FEW OR NO CLOUDS BELOW 12,000 FEET WITH NO
SIGNIFICANT WEATHER AND/OR OBSTRUCTIONS TO VISIBILITY.


SDZ001>005-009-010-012>017-010200-
NORTHWEST AND NORTH CENTRAL SOUTH DAKOTA

CITY           SKY/WX    TMP DP  RH WIND       PRES   REMARKS
BUFFALO          N/A     60  23  24 NW6       29.79F
FAITH            N/A     58  23  26 NE12      29.84S
MOBRIDGE       CLOUDY    58  20  22 NE8       29.82S
$$

SDZ012>016-024>037-041>051-057-063-072>074-010200-
SOUTHWEST AND SOUTH CENTRAL SOUTH DAKOTA

CITY           SKY/WX    TMP DP  RH WIND       PRES   REMARKS
RAPID CTY ARPT CLOUDY    56  21  25 N12       29.85S
PIERRE         CLOUDY    53  20  27 NE12      29.82R
CUSTER         CLEAR     47  17  30 E13       29.87S
ELLSWORTH AFB  CLEAR     58  21  23 N10       29.85S
PHILIP         CLOUDY    55  26  32 NE8       29.83S
PINE RIDGE     PTCLDY    54  23  30 N13       29.83S
SPEARFISH      FAIR      52  21  30 NE6       29.88S
WINNER         CLOUDY    49  22  34 NE12      29.79F
$$

SDZ004>011-016>023-039-040-010200-
NORTHEAST SOUTH DAKOTA

CITY           SKY/WX    TMP DP  RH WIND       PRES   REMARKS
ABERDEEN       CLOUDY    51  21  30 E10       29.83S
WATERTOWN      CLOUDY    43  32  65 NE23G35   29.78F
BROOKINGS      RAIN      39  36  89 NE13G22   29.75S
SISSETON         N/A     51  26  37 E13       29.82F
$$

SDZ017-020-022-023-036>040-048>070-010200-
SOUTHEAST SOUTH DAKOTA

CITY           SKY/WX    TMP DP  RH WIND       PRES   REMARKS
SIOUX FALLS    RAIN      38  38 100 N12       29.72F FOG
HURON          CLOUDY    47  33  58 E9        29.80S
CHAMBERLAIN    CLOUDY    51  21  30 N9        29.79F
MITCHELL       RAIN      42  40  92 NE16      29.80S FOG
YANKTON        CLOUDY    36  32  87 N14       29.71F
$$

ABBREVIATIONS USED IN REMARKS
   TC - TEMPERATURE IN CELSIUS
  WCI - WIND CHILL INDEX
   HX - HEAT INDEX
  VSB - VISIBILITY





USA.gov is the U.S. government's official web portal to all federal, state and local government web resources and services.